Weather History for Sanford, NC

Change the Weather History Date:

Wednesday, November 21, 2012

  Actual Average (KRDU) Record (KRDU)
Temperature  
Mean Temperature 45 °F 51 °F  
Max Temperature 60 °F 62 °F 79 °F (1942)
Min Temperature 30 °F 39 °F 17 °F (1914)
Degree Days  
Heating Degree Days 20 15  
Month to date heating degree days 247  
Since 1 July heating degree days 436  
Cooling Degree Days 0 0  
Month to date cooling degree days 1  
Year to date cooling degree days 1721  
Moisture  
Dew Point 34 °F    
Average Humidity 77    
Maximum Humidity 100    
Minimum Humidity 34    
Precipitation  
Precipitation 0.00 in 0.11 in 1.97 in (1985)
Month to date precipitation 2.19  
Year to date precipitation 39.34  
Snow  
Snow 0.00 in 0.00 in 0.40 in (2008)
Month to date snowfall 0.0  
Since 1 July snowfall 0.0  
Since 1 September snowfall 0.0  
Snow Depth -    
Sea Level Pressure  
Sea Level Pressure 30.13 in    
Wind  
Wind Speed 2 mph (NNE)    
Max Wind Speed 13 mph    
Max Gust Speed 16 mph    
Visibility 9 miles    
Events      
T = Trace of Precipitation, MM = Missing Value Source: NWS Daily Summary

Daily Weather History Graph

Daily Weather History Graph

Search for Another Location

Airport:

Trip Planner

Search our weather history database for the weather conditions in past years. The results will help you decide how hot, cold, wet, or windy it might be!

Date:

Astronomy

Nov. 21, 2012 Rise Set
Actual Time 6:58 AM EST 5:06 PM EST
Civil Twilight 6:30 AM EST 5:33 PM EST
Nautical Twilight 5:59 AM EST 6:04 PM EST
Astronomical Twilight 5:29 AM EST 6:35 PM EST
Moon 1:10 PM EST (11/21) 12:28 AM EST (11/21)
Length of Visible Light 11h 02m
Length of Day
10h 07m
First Quarter, 61% of the Moon is Illuminated
Nov 21
First Quarter
Nov 28
Full
Dec 6
Last Quarter
Dec 13
New
Dec 20
First Quarter

Hourly Weather History & Observations

Time (EST) Temp. Windchill Dew Point Humidity Pressure Visibility Wind Dir Wind Speed Gust Speed Precip Events Conditions
12:15 AM 37.4 °F - 35.6 °F 93% 30.10 in 7.0 mi Calm Calm - N/A   Clear
12:35 AM 35.6 °F - 35.6 °F 100% 30.10 in 7.0 mi Calm Calm - N/A   Clear
12:55 AM 35.6 °F - 33.8 °F 93% 30.10 in 5.0 mi Calm Calm - N/A   Clear
1:15 AM 33.8 °F - 33.8 °F 100% 30.10 in 7.0 mi Calm Calm - N/A   Clear
1:35 AM 33.8 °F - 33.8 °F 100% 30.10 in 10.0 mi Calm Calm - N/A   Clear
1:55 AM 33.8 °F - 32.0 °F 93% 30.10 in 10.0 mi Calm Calm - N/A   Clear
2:15 AM 33.8 °F - 32.0 °F 93% 30.10 in 7.0 mi Calm Calm - N/A   Clear
2:35 AM 33.8 °F - 32.0 °F 93% 30.10 in 2.0 mi Calm Calm - N/A   Clear
2:55 AM 32.0 °F - 32.0 °F 100% 30.10 in 7.0 mi Calm Calm - N/A   Clear
3:15 AM 32.0 °F - 32.0 °F 100% 30.10 in 10.0 mi Calm Calm - N/A   Clear
3:35 AM 32.0 °F - 32.0 °F 100% 30.10 in 10.0 mi Calm Calm - N/A   Scattered Clouds
3:55 AM 32.0 °F - 32.0 °F 100% 30.10 in 7.0 mi Calm Calm - N/A   Mostly Cloudy
4:15 AM 32.0 °F - 32.0 °F 100% 30.10 in 7.0 mi Calm Calm - N/A   Scattered Clouds
4:35 AM 32.0 °F - 32.0 °F 100% 30.10 in 10.0 mi Calm Calm - N/A   Clear
4:55 AM 32.0 °F - 30.2 °F 93% 30.11 in 10.0 mi Calm Calm - N/A   Clear
5:15 AM 30.2 °F - 30.2 °F 100% 30.11 in 10.0 mi Calm Calm - N/A   Clear
5:35 AM 30.2 °F - 30.2 °F 100% 30.11 in 10.0 mi Calm Calm - N/A   Clear
5:55 AM 30.2 °F - 30.2 °F 100% 30.12 in 10.0 mi Calm Calm - N/A   Scattered Clouds
6:15 AM 30.2 °F - 30.2 °F 100% 30.12 in 10.0 mi Calm Calm - N/A   Mostly Cloudy
6:35 AM 30.2 °F - 28.4 °F 93% 30.12 in 7.0 mi Calm Calm - N/A   Scattered Clouds
6:55 AM 30.2 °F - 30.2 °F 100% 30.13 in 5.0 mi Calm Calm - N/A   Clear
7:15 AM 30.2 °F - 30.2 °F 100% 30.13 in 3.0 mi Calm Calm - N/A   Clear
7:35 AM 30.2 °F - 30.2 °F 100% 30.14 in 4.0 mi Calm Calm - N/A   Clear
7:55 AM 32.0 °F - 30.2 °F 93% 30.14 in 7.0 mi Calm Calm - N/A   Clear
8:15 AM 32.0 °F - 32.0 °F 100% 30.15 in 7.0 mi Calm Calm - N/A   Clear
8:35 AM 35.6 °F - 35.6 °F 100% 30.15 in 5.0 mi Calm Calm - N/A   Clear
8:55 AM 37.4 °F - 37.4 °F 100% 30.16 in 5.0 mi Calm Calm - N/A   Clear
9:15 AM 42.8 °F 41.1 °F 41.0 °F 93% 30.16 in 10.0 mi NNE 3.5 mph - N/A   Clear
9:35 AM 46.4 °F 45.2 °F 42.8 °F 87% 30.16 in 10.0 mi NNE 3.5 mph - N/A   Clear
9:55 AM 50.0 °F - 42.8 °F 76% 30.16 in 10.0 mi North 8.1 mph - N/A   Clear
10:15 AM 50.0 °F - 42.8 °F 76% 30.17 in 10.0 mi NNE 11.5 mph - N/A   Clear
10:35 AM 51.8 °F - 42.8 °F 71% 30.17 in 10.0 mi North 10.4 mph 16.1 mph N/A   Clear
11:15 AM 53.6 °F - 41.0 °F 62% 30.16 in 10.0 mi North 8.1 mph - N/A   Clear
11:35 AM 53.6 °F - 41.0 °F 62% 30.15 in 10.0 mi North 6.9 mph - N/A   Clear
11:55 AM 55.4 °F - 41.0 °F 58% 30.14 in 10.0 mi North 9.2 mph - N/A   Clear
12:15 PM 55.4 °F - 37.4 °F 51% 30.14 in 10.0 mi North 12.7 mph - N/A   Clear
12:35 PM 57.2 °F - 37.4 °F 48% 30.13 in 10.0 mi NNE 10.4 mph - N/A   Clear
12:55 PM 57.2 °F - 37.4 °F 48% 30.12 in 10.0 mi NNE 9.2 mph - N/A   Clear
1:15 PM 59.0 °F - 37.4 °F 45% 30.12 in 10.0 mi North 8.1 mph - N/A   Clear
1:35 PM 59.0 °F - 35.6 °F 42% 30.11 in 10.0 mi NE 8.1 mph - N/A   Clear
2:15 PM 60.8 °F - 35.6 °F 39% 30.11 in 10.0 mi North 5.8 mph - N/A   Clear
2:35 PM 60.8 °F - 33.8 °F 36% 30.10 in 10.0 mi NNE 6.9 mph - N/A   Clear
2:55 PM 60.8 °F - 33.8 °F 36% 30.10 in 10.0 mi NNE 8.1 mph - N/A   Clear
3:15 PM 60.8 °F - 33.8 °F 36% 30.10 in 10.0 mi North 10.4 mph - N/A   Clear
3:35 PM 60.8 °F - 33.8 °F 36% 30.10 in 10.0 mi NE 5.8 mph - N/A   Clear
3:55 PM 60.8 °F - 32.0 °F 34% 30.10 in 10.0 mi NNE 9.2 mph - N/A   Clear
4:15 PM 59.0 °F - 32.0 °F 36% 30.11 in 10.0 mi NNE 6.9 mph - N/A   Clear
4:35 PM 59.0 °F - 32.0 °F 36% 30.11 in 10.0 mi NNE 5.8 mph - N/A   Clear
4:55 PM 55.4 °F - 32.0 °F 41% 30.12 in 10.0 mi NNE 6.9 mph - N/A   Clear
5:15 PM 51.8 °F - 32.0 °F 47% 30.12 in 10.0 mi North 3.5 mph - N/A   Clear
5:35 PM 51.8 °F - 32.0 °F 47% 30.13 in 10.0 mi Calm Calm - N/A   Clear
5:55 PM 50.0 °F - 33.8 °F 54% 30.13 in 10.0 mi Calm Calm - N/A   Clear
6:15 PM 48.2 °F - 33.8 °F 58% 30.14 in 10.0 mi Calm Calm - N/A   Clear
6:35 PM 44.6 °F - 33.8 °F 66% 30.14 in 10.0 mi Calm Calm - N/A   Clear
7:15 PM 42.8 °F - 33.8 °F 70% 30.15 in 10.0 mi Calm Calm - N/A   Clear
7:35 PM 41.0 °F - 33.8 °F 76% 30.15 in 10.0 mi Calm Calm - N/A   Clear
7:55 PM 41.0 °F - 33.8 °F 76% 30.16 in 10.0 mi Calm Calm - N/A   Clear
8:15 PM 39.2 °F - 33.8 °F 81% 30.16 in 10.0 mi Calm Calm - N/A   Clear
8:35 PM 37.4 °F - 32.0 °F 81% 30.17 in 10.0 mi Calm Calm - N/A   Clear
8:55 PM 37.4 °F - 32.0 °F 81% 30.17 in 10.0 mi Calm Calm - N/A   Clear
9:15 PM 35.6 °F - 32.0 °F 87% 30.17 in 10.0 mi Calm Calm - N/A   Clear
9:35 PM 37.4 °F - 32.0 °F 81% 30.17 in 10.0 mi Calm Calm - N/A   Clear
9:55 PM 35.6 °F - 32.0 °F 87% 30.18 in 10.0 mi Calm Calm - N/A   Clear
10:15 PM 35.6 °F - 32.0 °F 87% 30.17 in 10.0 mi Calm Calm - N/A   Clear
10:35 PM 35.6 °F - 32.0 °F 87% 30.18 in 10.0 mi Calm Calm - N/A   Clear
10:55 PM 33.8 °F - 32.0 °F 93% 30.18 in 10.0 mi Calm Calm - N/A   Clear
11:15 PM 33.8 °F - 32.0 °F 93% 30.18 in 10.0 mi Calm Calm - N/A   Clear
11:55 PM 32.0 °F - 30.2 °F 93% 30.18 in 10.0 mi Calm Calm - N/A   Clear